11-07-2023, 00:00:03,    164,    1.8,   14.3,   0.00,   0.00, 1009.2,    0.4, -999.0
11-07-2023, 00:00:13,    170,    1.4,   14.3,   0.00,   0.00, 1009.2,    0.3, -999.0
11-07-2023, 00:00:23,    170,    0.5,   14.4,   0.00,   0.00, 1009.2,    0.4, -999.0
11-07-2023, 00:00:33,    138,    3.4,   14.4,   0.00,   0.01, 1009.2,    0.3, -999.0
11-07-2023, 00:00:43,    160,    3.3,   14.3,   0.00,   0.00, 1009.2,    0.4, -999.0
11-07-2023, 00:00:53,    149,    2.1,   14.3,   0.00,   0.00, 1009.2,    0.3, -999.0
11-07-2023, 00:01:02,    183,    2.7,   14.3,   0.00,   0.00, 1009.2,    0.2, -999.0
11-07-2023, 00:01:13,    157,    1.5,   14.4,   0.00,   0.00, 1009.2,    0.4, -999.0
11-07-2023, 00:01:23,    156,    2.1,   14.4,   0.00,   0.00, 1009.2,    0.3, -999.0
11-07-2023, 00:01:33,    156,    1.1,   14.3,   0.00,   0.01, 1009.2,    0.5, -999.0
11-07-2023, 00:01:42,    190,    2.1,   14.4,   0.00,   0.00, 1009.2,    0.3, -999.0
11-07-2023, 00:01:53,    128,    1.1,   14.4,   0.00,   0.00, 1009.2,    0.2, -999.0
11-07-2023, 00:02:03,    172,    3.1,   14.3,   0.00,   0.00, 1009.2,    0.2, -999.0
11-07-2023, 00:02:12,    162,    1.9,   14.4,   0.00,   0.00, 1009.1,    0.2, -999.0
11-07-2023, 00:02:22,    166,    2.3,   14.3,   0.00,   0.00, 1009.1,    0.3, -999.0
11-07-2023, 00:02:33,    138,    2.6,   14.4,   0.00,   0.00, 1009.2,    0.3, -999.0
11-07-2023, 00:02:42,    171,    3.6,   14.3,   0.00,   0.00, 1009.2,    0.4, -999.0
11-07-2023, 00:02:52,    157,    4.4,   14.3,   0.00,   0.00, 1009.2,    0.3, -999.0
11-07-2023, 00:03:02,    114,    3.8,   14.3,   0.00,   0.00, 1009.2,    0.3, -999.0
11-07-2023, 00:03:12,    130,    1.5,   14.3,   0.00,   0.00, 1009.2,    0.1, -999.0
11-07-2023, 00:03:22,    185,    0.0,   14.1,   0.00,   0.00, 1009.0,    0.2, -999.0
11-07-2023, 00:03:32,    139,    3.3,   14.4,   0.00,   0.00, 1009.1,    0.2, -999.0
11-07-2023, 00:03:42,    128,    3.5,   14.3,   0.00,   0.00, 1009.1,    0.4, -999.0
11-07-2023, 00:03:52,    173,    1.0,   14.3,   0.00,   0.01, 1009.1,    0.3, -999.0
11-07-2023, 00:04:02,    150,    1.1,   14.3,   0.00,   0.00, 1009.1,    0.2, -999.0
11-07-2023, 00:04:12,    133,    3.6,   14.4,   0.00,   0.00, 1009.2,    0.3, -999.0
11-07-2023, 00:04:22,    130,    3.1,   14.3,   0.00,   0.00, 1009.2,    0.3, -999.0
11-07-2023, 00:04:32,    158,    2.7,   14.4,   0.00,   0.00, 1009.2,    0.2, -999.0
11-07-2023, 00:04:42,    176,    1.4,   14.4,   0.00,   0.00, 1009.1,    0.4, -999.0
11-07-2023, 00:04:52,    173,    1.5,   14.4,   0.00,   0.00, 1009.1,    0.3, -999.0
11-07-2023, 00:05:02,    138,    1.5,   14.4,   0.00,   0.00, 1009.2,    0.4, -999.0
11-07-2023, 00:05:12,    133,    1.5,   14.4,   0.00,   0.00, 1009.2,    0.3, -999.0
11-07-2023, 00:05:22,    133,    0.9,   14.3,   0.00,   0.00, 1009.2,    0.4, -999.0
11-07-2023, 00:05:32,    133,    0.5,   14.4,   0.00,   0.00, 1009.2,    0.3, -999.0
11-07-2023, 00:05:42,    190,    1.2,   14.4,   0.00,   0.00, 1009.1,    0.3, -999.0
11-07-2023, 00:05:52,    190,    0.9,   14.4,   0.00,   0.00, 1009.2,    0.3, -999.0
11-07-2023, 00:06:02,    169,    1.7,   14.3,   0.00,   0.00, 1009.2,    0.3, -999.0
11-07-2023, 00:06:12,    201,    5.1,   14.4,   0.00,   0.00, 1009.1,    0.4, -999.0
11-07-2023, 00:06:22,    196,    2.2,   14.3,   0.00,   0.00, 1009.1,    0.4, -999.0
11-07-2023, 00:06:32,    139,    4.4,   14.4,   0.00,   0.00, 1009.2,    0.1, -999.0
11-07-2023, 00:06:42,    142,    5.6,   14.3,   0.00,   0.00, 1009.1,    0.1, -999.0
11-07-2023, 00:06:52,    157,    1.3,   14.3,   0.00,   0.00, 1009.1,    0.4, -999.0
11-07-2023, 00:07:02,    168,    2.4,   14.3,   0.00,   0.00, 1009.1,    0.1, -999.0
11-07-2023, 00:07:12,    156,    1.9,   14.4,   0.00,   0.00, 1009.1,    0.4, -999.0
11-07-2023, 00:07:24,    156,    0.1,   14.3,   0.00,   0.00, 1009.0,    0.5, -999.0
11-07-2023, 00:07:32,    155,    1.2,   14.4,   0.00,   0.00, 1009.1,    0.2, -999.0
11-07-2023, 00:07:42,    197,    0.7,   14.4,   0.00,   0.00, 1009.1,    0.3, -999.0
11-07-2023, 00:07:52,    172,    2.2,   14.4,   0.00,   0.00, 1009.1,    0.3, -999.0
11-07-2023, 00:08:01,    201,    2.5,   14.4,   0.00,   0.00, 1009.1,    0.4, -999.0
11-07-2023, 00:08:12,    174,    2.0,   14.3,   0.00,   0.00, 1009.1,    0.1, -999.0
11-07-2023, 00:08:22,    216,    1.3,   14.4,   0.00,   0.00, 1009.1,    0.4, -999.0
11-07-2023, 00:08:31,    172,    2.7,   14.4,   0.00,   0.00, 1009.1,    0.3, -999.0
11-07-2023, 00:08:42,    155,    2.5,   14.3,   0.00,   0.00, 1009.1,    0.2, -999.0
11-07-2023, 00:08:52,    145,    2.3,   14.3,   0.00,   0.00, 1009.1,    0.3, -999.0
11-07-2023, 00:09:02,    148,    1.4,   14.3,   0.00,   0.00, 1009.1,    0.2, -999.0
11-07-2023, 00:09:11,    178,    1.5,   14.3,   0.00,   0.00, 1009.1,    0.3, -999.0
11-07-2023, 00:09:22,    199,    2.4,   14.3,   0.00,   0.00, 1009.2,    0.3, -999.0
11-07-2023, 00:09:32,    163,    1.7,   14.4,   0.00,   0.00, 1009.0,    0.5, -999.0
11-07-2023, 00:09:41,    107,    2.9,   14.4,   0.00,   0.00, 1009.1,    0.3, -999.0
11-07-2023, 00:09:51,    109,    1.0,   14.4,   0.00,   0.00, 1009.0,    0.3, -999.0
11-07-2023, 00:10:02,    162,    0.8,   14.3,   0.00,   0.00, 1009.1,    0.4, -999.0
11-07-2023, 00:10:11,    164,    2.1,   14.4,   0.00,   0.00, 1009.1,    0.3, -999.0
11-07-2023, 00:10:21,    136,    2.5,   14.3,   0.00,   0.00, 1009.1,    0.4, -999.0
11-07-2023, 00:10:31,    147,    3.1,   14.4,   0.00,   0.00, 1009.1,    0.2, -999.0
11-07-2023, 00:10:41,    150,    3.4,   14.4,   0.00,   0.00, 1009.1,    0.2, -999.0
11-07-2023, 00:10:51,    153,    1.4,   14.4,   0.00,   0.00, 1009.0,    0.2, -999.0
11-07-2023, 00:11:01,    152,    1.0,   14.3,   0.00,   0.01, 1009.0,    0.5, -999.0
11-07-2023, 00:11:11,    134,    3.5,   14.4,   0.00,   0.00, 1009.1,    0.0, -999.0
11-07-2023, 00:11:21,    156,    1.0,   14.4,   0.00,   0.00, 1009.0,    0.3, -999.0
11-07-2023, 00:11:31,    180,    0.7,   14.4,   0.00,   0.00, 1009.0,    0.1, -999.0
11-07-2023, 00:11:41,    180,    0.0,   14.3,   0.00,   0.00, 1008.9,    0.4, -999.0
11-07-2023, 00:11:51,    180,    0.6,   14.3,   0.00,   0.00, 1009.0,    0.3, -999.0
11-07-2023, 00:12:01,    179,    0.2,   14.3,   0.00,   0.00, 1008.9,    0.5, -999.0
11-07-2023, 00:12:11,    180,    1.0,   14.3,   0.00,   0.01, 1009.0,    0.3, -999.0
11-07-2023, 00:12:21,    171,    2.7,   14.4,   0.00,   0.00, 1009.0,    0.4, -999.0
11-07-2023, 00:12:31,    200,    2.8,   14.3,   0.00,   0.00, 1009.0,    0.3, -999.0
11-07-2023, 00:12:41,    153,    3.0,   14.3,   0.00,   0.00, 1009.0,    0.3, -999.0
11-07-2023, 00:12:51,    171,    2.9,   14.4,   0.00,   0.00, 1009.1,    0.3, -999.0
11-07-2023, 00:13:01,    125,    3.8,   14.4,   0.00,   0.00, 1009.0,    0.3, -999.0
11-07-2023, 00:13:11,    149,    1.6,   14.4,   0.00,   0.00, 1009.0,    0.3, -999.0
11-07-2023, 00:13:21,    150,    0.5,   14.3,   0.00,   0.00, 1009.0,    0.2, -999.0
11-07-2023, 00:13:31,    149,    0.4,   14.4,   0.00,   0.00, 1008.9,    0.4, -999.0
11-07-2023, 00:13:41,    149,    1.6,   14.4,   0.00,   0.01, 1009.0,    0.1, -999.0
11-07-2023, 00:13:51,    149,    1.2,   14.4,   0.00,   0.00, 1009.0,    0.4, -999.0
11-07-2023, 00:14:01,    149,    0.0,   14.3,   0.00,   0.00, 1008.8,    0.0, -999.0
11-07-2023, 00:14:11,    149,    0.4,   14.3,   0.00,   0.00, 1008.9,    0.2, -999.0
11-07-2023, 00:14:21,    159,    0.8,   14.4,   0.00,   0.00, 1009.0,    0.1, -999.0
11-07-2023, 00:14:31,    159,    0.1,   14.5,   0.00,   0.00, 1008.9,    0.2, -999.0
11-07-2023, 00:14:41,    159,    3.3,   14.4,   0.00,   0.00, 1009.0,    0.3, -999.0
11-07-2023, 00:14:51,    160,    3.2,   14.4,   0.00,   0.00, 1009.0,    0.3, -999.0
11-07-2023, 00:15:01,    159,    2.1,   14.3,   0.00,   0.00, 1009.0,    0.3, -999.0
11-07-2023, 00:15:11,    225,    3.0,   14.3,   0.00,   0.00, 1008.9,    0.3, -999.0
11-07-2023, 00:15:21,    170,    1.1,   14.4,   0.00,   0.00, 1008.9,    0.2, -999.0
11-07-2023, 00:15:31,    135,    1.1,   14.4,   0.00,   0.00, 1008.9,    0.3, -999.0
11-07-2023, 00:15:40,    209,    2.3,   14.3,   0.00,   0.00, 1008.9,    0.2, -999.0
11-07-2023, 00:15:51,    209,    0.5,   14.4,   0.00,   0.00, 1008.9,    0.3, -999.0
11-07-2023, 00:16:01,    209,    0.3,   14.4,   0.00,   0.00, 1008.9,    0.2, -999.0
11-07-2023, 00:16:10,    207,    0.3,   14.4,   0.00,   0.00, 1008.8,    0.3, -999.0
11-07-2023, 00:16:21,    186,    1.7,   14.4,   0.00,   0.00, 1008.9,    0.2, -999.0
11-07-2023, 00:16:31,    150,    1.4,   14.4,   0.00,   0.00, 1008.9,    0.3, -999.0
11-07-2023, 00:16:40,    172,    4.6,   14.4,   0.00,   0.00, 1008.9,    0.1, -999.0
11-07-2023, 00:16:50,    169,    3.2,   14.4,   0.00,   0.00, 1008.9,    0.3, -999.0
11-07-2023, 00:17:01,    188,    2.7,   14.2,   0.00,   0.00, 1008.9,    0.5, -999.0
11-07-2023, 00:17:11,    155,    3.2,   14.4,   0.00,   0.00, 1009.0,    0.3, -999.0
11-07-2023, 00:17:20,    170,    3.0,   14.4,   0.00,   0.00, 1008.9,    0.3, -999.0
11-07-2023, 00:17:30,    191,    2.8,   14.4,   0.00,   0.00, 1009.0,    0.3, -999.0
11-07-2023, 00:17:41,    186,    2.0,   14.4,   0.00,   0.00, 1009.0,    0.2, -999.0
11-07-2023, 00:17:50,    134,    1.7,   14.4,   0.00,   0.00, 1008.9,    0.1, -999.0
11-07-2023, 00:18:00,    165,    3.4,   14.4,   0.00,   0.01, 1009.0,    0.1, -999.0
11-07-2023, 00:18:10,    164,    1.5,   14.4,   0.00,   0.00, 1008.9,    0.2, -999.0
11-07-2023, 00:18:20,    173,    0.5,   14.4,   0.00,   0.00, 1008.9,    0.2, -999.0
11-07-2023, 00:18:30,    170,    0.8,   14.3,   0.00,   0.00, 1008.9,    0.4, -999.0
11-07-2023, 00:18:40,    177,    0.8,   14.4,   0.00,   0.00, 1008.9,    0.3, -999.0
11-07-2023, 00:18:50,    180,    0.2,   14.3,   0.00,   0.00, 1008.9,    0.6, -999.0
11-07-2023, 00:19:00,    130,    0.7,   14.4,   0.00,   0.00, 1008.9,    0.4, -999.0
11-07-2023, 00:19:10,    229,    0.8,   14.4,   0.00,   0.00, 1008.9,    0.3, -999.0
11-07-2023, 00:19:20,    213,    1.1,   14.4,   0.00,   0.00, 1008.9,    0.5, -999.0
11-07-2023, 00:19:30,    168,    2.1,   14.4,   0.00,   0.00, 1008.9,    0.1, -999.0
11-07-2023, 00:19:40,    173,    1.8,   14.4,   0.00,   0.00, 1008.9,    0.2, -999.0
11-07-2023, 00:19:50,    174,    0.0,   14.2,   0.00,   0.00, 1008.8,    0.3, -999.0
11-07-2023, 00:20:00,    174,    0.6,   14.3,   0.00,   0.00, 1008.9,    0.2, -999.0
11-07-2023, 00:20:10,    104,    1.8,   14.3,   0.00,   0.00, 1008.9,    0.4, -999.0
11-07-2023, 00:20:20,    168,    0.4,   14.3,   0.00,   0.00, 1008.9,    0.2, -999.0
11-07-2023, 00:20:30,    117,    1.5,   14.4,   0.00,   0.00, 1008.9,    0.3, -999.0
11-07-2023, 00:20:40,    141,    2.1,   14.4,   0.00,   0.00, 1008.9,    0.3, -999.0
11-07-2023, 00:20:50,    153,    1.5,   14.5,   0.00,   0.00, 1009.0,    0.2, -999.0
11-07-2023, 00:21:00,    153,    1.2,   14.5,   0.00,   0.00, 1008.9,    0.3, -999.0
11-07-2023, 00:21:10,    171,    2.8,   14.4,   0.00,   0.00, 1008.9,    0.2, -999.0
11-07-2023, 00:21:20,    215,    2.3,   14.5,   0.00,   0.00, 1008.9,    0.3, -999.0
11-07-2023, 00:21:30,    197,    1.8,   14.5,   0.00,   0.00, 1008.9,    0.2, -999.0
11-07-2023, 00:21:40,    165,    2.5,   14.5,   0.00,   0.00, 1009.0,    0.3, -999.0
11-07-2023, 00:21:50,    158,    3.3,   14.4,   0.00,   0.00, 1008.9,    0.2, -999.0
11-07-2023, 00:22:00,    161,    1.6,   14.4,   0.00,   0.00, 1008.9,    0.4, -999.0
11-07-2023, 00:22:10,    161,    0.0,   14.3,   0.00,   0.00, 1008.7,    0.3, -999.0
11-07-2023, 00:22:20,    167,    1.8,   14.4,   0.00,   0.00, 1008.9,    0.3, -999.0
11-07-2023, 00:22:30,    165,    1.3,   14.3,   0.00,   0.00, 1008.9,    0.2, -999.0
11-07-2023, 00:22:40,    172,    2.1,   14.4,   0.00,   0.00, 1008.9,    0.3, -999.0
11-07-2023, 00:22:50,    156,    1.5,   14.5,   0.00,   0.00, 1008.9,    0.3, -999.0
11-07-2023, 00:23:00,    184,    1.0,   14.4,   0.00,   0.00, 1008.9,    0.2, -999.0
11-07-2023, 00:23:09,    171,    1.7,   14.4,   0.00,   0.00, 1008.9,    0.2, -999.0
11-07-2023, 00:23:20,    189,    1.3,   14.4,   0.00,   0.00, 1008.9,    0.3, -999.0
11-07-2023, 00:23:30,    119,    3.4,   14.4,   0.00,   0.00, 1008.9,    0.2, -999.0
11-07-2023, 00:23:39,    176,    6.0,   14.4,   0.00,   0.00, 1008.9,    0.3, -999.0
11-07-2023, 00:23:49,    171,    1.9,   14.4,   0.00,   0.00, 1008.9,    0.2, -999.0
11-07-2023, 00:24:00,    153,    1.6,   14.4,   0.00,   0.00, 1008.8,    0.3, -999.0
11-07-2023, 00:24:10,    172,    1.7,   14.4,   0.00,   0.00, 1008.8,    0.3, -999.0
11-07-2023, 00:24:19,    126,    2.4,   14.4,   0.00,   0.00, 1009.0,    0.1, -999.0
11-07-2023, 00:24:29,    122,    2.3,   14.5,   0.00,   0.00, 1008.8,    0.3, -999.0
11-07-2023, 00:24:40,    161,    1.8,   14.3,   0.00,   0.00, 1008.9,    0.3, -999.0
11-07-2023, 00:24:49,    197,    1.7,   14.4,   0.00,   0.00, 1008.8,    0.2, -999.0
11-07-2023, 00:24:59,    186,    0.8,   14.4,   0.00,   0.00, 1008.8,    0.3, -999.0
11-07-2023, 00:25:09,    148,    0.9,   14.4,   0.00,   0.00, 1008.8,    0.2, -999.0
11-07-2023, 00:25:19,    148,    1.0,   14.4,   0.00,   0.00, 1008.8,    0.4, -999.0
11-07-2023, 00:25:29,    137,    1.2,   14.4,   0.00,   0.00, 1008.8,    0.3, -999.0
11-07-2023, 00:25:39,    147,    0.7,   14.4,   0.00,   0.00, 1008.7,    0.1, -999.0
11-07-2023, 00:25:49,    203,    4.6,   14.5,   0.00,   0.00, 1008.8,    0.3, -999.0
11-07-2023, 00:25:59,    183,    3.1,   14.5,   0.00,   0.00, 1008.8,    0.4, -999.0
11-07-2023, 00:26:09,    176,    2.1,   14.5,   0.00,   0.00, 1008.8,    0.6, -999.0
11-07-2023, 00:26:19,    175,    0.7,   14.5,   0.00,   0.00, 1008.8,    0.4, -999.0
11-07-2023, 00:26:29,    133,    0.6,   14.5,   0.00,   0.00, 1008.8,    0.2, -999.0
11-07-2023, 00:26:39,    152,    2.5,   14.5,   0.00,   0.00, 1008.8,    0.4, -999.0
11-07-2023, 00:26:49,    174,    2.7,   14.5,   0.00,   0.00, 1008.8,    0.1, -999.0
11-07-2023, 00:26:59,    172,    4.1,   14.5,   0.00,   0.00, 1008.8,    0.3, -999.0
11-07-2023, 00:27:09,    230,    5.0,   14.5,   0.00,   0.00, 1008.8,    0.3, -999.0
11-07-2023, 00:27:19,    187,    2.5,   14.5,   0.00,   0.00, 1008.8,    0.3, -999.0
11-07-2023, 00:27:29,    167,    2.2,   14.5,   0.00,   0.00, 1008.8,    0.2, -999.0
11-07-2023, 00:27:39,    155,    2.0,   14.4,   0.00,   0.00, 1008.8,    0.2, -999.0
11-07-2023, 00:27:49,    172,    0.8,   14.4,   0.00,   0.00, 1008.8,    0.3, -999.0
11-07-2023, 00:27:59,    141,    2.1,   14.4,   0.00,   0.00, 1008.8,    0.3, -999.0
11-07-2023, 00:28:09,    177,    0.7,   14.5,   0.00,   0.00, 1008.8,    0.2, -999.0
11-07-2023, 00:28:19,    179,    1.2,   14.5,   0.00,   0.00, 1008.8,    0.2, -999.0
11-07-2023, 00:28:29,    154,    4.3,   14.5,   0.00,   0.00, 1008.8,    0.3, -999.0
11-07-2023, 00:28:39,    178,    4.1,   14.4,   0.00,   0.00, 1008.8,    0.2, -999.0
11-07-2023, 00:28:49,    141,    2.3,   14.4,   0.00,   0.00, 1008.8,    0.2, -999.0
11-07-2023, 00:28:59,    159,    2.2,   14.5,   0.00,   0.00, 1008.8,    0.2, -999.0
11-07-2023, 00:29:09,    165,    3.5,   14.5,   0.00,   0.00, 1008.8,    0.3, -999.0
11-07-2023, 00:29:19,    148,    1.0,   14.5,   0.00,   0.00, 1008.8,    0.4, -999.0
11-07-2023, 00:29:29,    124,    1.4,   14.4,   0.00,   0.00, 1008.8,    0.1, -999.0
11-07-2023, 00:29:39,    135,    6.1,   14.4,   0.00,   0.00, 1008.8,    0.4, -999.0
11-07-2023, 00:29:49,    173,    2.0,   14.4,   0.00,   0.00, 1008.8,    0.2, -999.0
11-07-2023, 00:29:59,    168,    0.6,   14.4,   0.00,   0.00, 1008.8,    0.1, -999.0
11-07-2023, 00:30:08,    139,    3.0,   14.4,   0.00,   0.00, 1008.8,    0.4, -999.0
11-07-2023, 00:30:19,    156,    1.8,   14.4,   0.00,   0.00, 1008.8,    0.3, -999.0
11-07-2023, 00:30:29,    146,    3.3,   14.4,   0.00,   0.00, 1008.8,    0.2, -999.0
11-07-2023, 00:30:38,    159,    1.4,   14.4,   0.00,   0.00, 1008.8,    0.3, -999.0
11-07-2023, 00:30:48,    152,    3.2,   14.4,   0.00,   0.00, 1008.8,    0.5, -999.0
11-07-2023, 00:30:59,    152,    0.3,   14.4,   0.00,   0.00, 1008.8,    0.3, -999.0
11-07-2023, 00:31:09,    216,    0.1,   14.3,   0.00,   0.00, 1008.7,    0.4, -999.0
11-07-2023, 00:31:18,    121,    2.0,   14.4,   0.00,   0.00, 1008.8,    0.2, -999.0
11-07-2023, 00:31:28,    186,    2.5,   14.4,   0.00,   0.00, 1008.8,    0.5, -999.0
11-07-2023, 00:31:39,    221,    1.1,   14.5,   0.00,   0.00, 1008.8,    0.3, -999.0
11-07-2023, 00:31:48,    167,    2.5,   14.4,   0.00,   0.00, 1008.8,    0.3, -999.0
11-07-2023, 00:31:58,    169,    3.4,   14.4,   0.00,   0.00, 1008.8,    0.4, -999.0
11-07-2023, 00:32:09,    136,    2.4,   14.5,   0.00,   0.00, 1008.8,    0.3, -999.0
11-07-2023, 00:32:18,    147,    0.9,   14.4,   0.00,   0.00, 1008.8,    0.3, -999.0
11-07-2023, 00:32:28,    162,    2.3,   14.4,   0.00,   0.00, 1008.8,    0.3, -999.0
11-07-2023, 00:32:38,    160,    1.2,   14.4,   0.00,   0.00, 1008.8,    0.4, -999.0
11-07-2023, 00:32:48,    160,    0.4,   14.4,   0.00,   0.00, 1008.8,    0.3, -999.0
11-07-2023, 00:32:58,    165,    1.3,   14.4,   0.00,   0.00, 1008.8,    0.5, -999.0
11-07-2023, 00:33:08,    130,    2.2,   14.5,   0.00,   0.00, 1008.8,    0.3, -999.0
11-07-2023, 00:33:18,    161,    1.6,   14.5,   0.00,   0.00, 1008.8,    0.4, -999.0
11-07-2023, 00:33:28,    159,    1.4,   14.4,   0.00,   0.00, 1008.8,    0.2, -999.0
11-07-2023, 00:33:38,    180,    1.4,   14.4,   0.00,   0.00, 1008.8,    0.2, -999.0
11-07-2023, 00:33:48,    156,    1.7,   14.4,   0.00,   0.00, 1008.8,    0.2, -999.0
11-07-2023, 00:33:58,    161,    2.9,   14.4,   0.00,   0.00, 1008.8,    0.3, -999.0
11-07-2023, 00:34:08,    124,    4.4,   14.5,   0.00,   0.00, 1008.8,    0.2, -999.0
11-07-2023, 00:34:18,    158,    2.1,   14.4,   0.00,   0.00, 1008.8,    0.2, -999.0
11-07-2023, 00:34:28,    149,    1.7,   14.4,   0.00,   0.00, 1008.8,    0.2, -999.0
11-07-2023, 00:34:38,    133,    5.4,   14.4,   0.00,   0.00, 1008.8,    0.3, -999.0
11-07-2023, 00:34:48,    195,    3.9,   14.4,   0.00,   0.00, 1008.7,    0.4, -999.0
11-07-2023, 00:34:58,    207,    0.6,   14.4,   0.00,   0.00, 1008.7,    0.2, -999.0
11-07-2023, 00:35:08,    232,    1.5,   14.5,   0.00,   0.00, 1008.7,    0.2, -999.0
11-07-2023, 00:35:18,    152,    1.1,   14.5,   0.00,   0.00, 1008.7,    0.1, -999.0
11-07-2023, 00:35:28,    181,    3.1,   14.4,   0.00,   0.00, 1008.7,    0.2, -999.0
11-07-2023, 00:35:38,    181,    0.8,   14.4,   0.00,   0.00, 1008.7,    0.3, -999.0
11-07-2023, 00:35:48,    162,    2.5,   14.5,   0.00,   0.00, 1008.7,    0.5, -999.0
11-07-2023, 00:35:58,    160,    1.2,   14.5,   0.00,   0.00, 1008.7,    0.2, -999.0
11-07-2023, 00:36:08,    160,    0.7,   14.5,   0.00,   0.00, 1008.7,    0.1, -999.0
11-07-2023, 00:36:18,    173,    1.0,   14.5,   0.00,   0.00, 1008.7,    0.2, -999.0
11-07-2023, 00:36:28,    145,    1.4,   14.4,   0.00,   0.00, 1008.8,    0.5, -999.0
11-07-2023, 00:36:38,    201,    2.8,   14.5,   0.00,   0.00, 1008.7,    0.4, -999.0
11-07-2023, 00:36:48,    193,    1.7,   14.4,   0.00,   0.00, 1008.7,    0.2, -999.0
11-07-2023, 00:36:58,    167,    0.1,   14.4,   0.00,   0.00, 1008.6,    0.1, -999.0
11-07-2023, 00:37:07,    166,    1.0,   14.4,   0.00,   0.00, 1008.7,    0.4, -999.0
11-07-2023, 00:37:18,    166,    0.1,   14.4,   0.00,   0.00, 1008.6,    0.3, -999.0
11-07-2023, 00:37:28,    191,    1.1,   14.4,   0.00,   0.00, 1008.6,    0.2, -999.0
11-07-2023, 00:37:38,    187,    1.0,   14.4,   0.00,   0.00, 1008.7,    0.3, -999.0
11-07-2023, 00:37:47,    147,    1.5,   14.4,   0.00,   0.00, 1008.7,    0.3, -999.0
11-07-2023, 00:37:58,    147,    0.5,   14.4,   0.00,   0.00, 1008.6,    0.2, -999.0
11-07-2023, 00:38:08,    147,    0.2,   14.3,   0.00,   0.00, 1008.6,    0.2, -999.0
11-07-2023, 00:38:17,    159,    1.0,   14.4,   0.00,   0.00, 1008.6,    0.4, -999.0
11-07-2023, 00:38:27,    158,    1.0,   14.3,   0.00,   0.00, 1008.6,    0.3, -999.0
11-07-2023, 00:38:38,    172,    1.4,   14.4,   0.00,   0.00, 1008.6,    0.4, -999.0
11-07-2023, 00:38:47,    160,    1.9,   14.4,   0.00,   0.00, 1008.7,    0.2, -999.0
11-07-2023, 00:38:57,    193,    0.7,   14.4,   0.00,   0.00, 1008.6,    0.3, -999.0
11-07-2023, 00:39:07,    163,    0.5,   14.5,   0.00,   0.00, 1008.6,    0.3, -999.0
11-07-2023, 00:39:18,    150,    2.7,   14.5,   0.00,   0.00, 1008.6,    0.3, -999.0
11-07-2023, 00:39:27,    184,    2.5,   14.4,   0.00,   0.00, 1008.7,    0.3, -999.0
11-07-2023, 00:39:37,    154,    1.5,   14.5,   0.00,   0.00, 1008.6,    0.3, -999.0
11-07-2023, 00:39:48,    109,    3.2,   14.4,   0.00,   0.00, 1008.6,    0.3, -999.0
11-07-2023, 00:39:57,    195,    1.7,   14.4,   0.00,   0.00, 1008.6,    0.3, -999.0
11-07-2023, 00:40:07,    195,    0.4,   14.4,   0.00,   0.00, 1008.6,    0.3, -999.0
11-07-2023, 00:40:17,    145,    1.2,   14.5,   0.00,   0.00, 1008.6,    0.5, -999.0
11-07-2023, 00:40:27,    124,    2.6,   14.4,   0.00,   0.00, 1008.6,    0.2, -999.0
11-07-2023, 00:40:37,    187,    4.0,   14.4,   0.00,   0.00, 1008.6,    0.4, -999.0
11-07-2023, 00:40:47,    166,    2.6,   14.4,   0.00,   0.00, 1008.6,    0.2, -999.0
11-07-2023, 00:40:57,    178,    0.8,   14.4,   0.00,   0.00, 1008.6,    0.3, -999.0
11-07-2023, 00:41:07,    177,    0.4,   14.4,   0.00,   0.00, 1008.6,    0.3, -999.0
11-07-2023, 00:41:17,    186,    0.1,   14.4,   0.00,   0.00, 1008.6,    0.4, -999.0
11-07-2023, 00:41:27,    184,    1.0,   14.3,   0.00,   0.00, 1008.6,    0.2, -999.0
11-07-2023, 00:41:37,    157,    1.9,   14.4,   0.00,   0.00, 1008.7,    0.3, -999.0
11-07-2023, 00:41:47,    198,    2.0,   14.5,   0.00,   0.00, 1008.7,    0.2, -999.0
11-07-2023, 00:41:57,    187,    1.1,   14.5,   0.00,   0.00, 1008.7,    0.3, -999.0
11-07-2023, 00:42:07,    182,    1.2,   14.4,   0.00,   0.00, 1008.6,    0.5, -999.0
11-07-2023, 00:42:17,    154,    1.4,   14.4,   0.00,   0.00, 1008.6,    0.2, -999.0
11-07-2023, 00:42:27,    182,    1.0,   14.4,   0.00,   0.00, 1008.7,    0.2, -999.0
11-07-2023, 00:42:37,    193,    0.6,   14.4,   0.00,   0.00, 1008.7,    0.3, -999.0
11-07-2023, 00:42:47,    176,    0.8,   14.4,   0.00,   0.00, 1008.7,    0.3, -999.0
11-07-2023, 00:42:57,    201,    1.5,   14.4,   0.00,   0.00, 1008.7,    0.3, -999.0
11-07-2023, 00:43:07,    156,    2.0,   14.3,   0.00,   0.00, 1008.7,    0.4, -999.0
11-07-2023, 00:43:17,    155,    0.4,   14.4,   0.00,   0.00, 1008.6,    0.2, -999.0
11-07-2023, 00:43:27,    154,    0.4,   14.4,   0.00,   0.00, 1008.6,    0.3, -999.0
11-07-2023, 00:43:37,    161,    2.4,   14.4,   0.00,   0.00, 1008.6,    0.3, -999.0
11-07-2023, 00:43:47,    174,    1.9,   14.4,   0.00,   0.00, 1008.7,    0.3, -999.0
11-07-2023, 00:43:57,    174,    0.8,   14.4,   0.00,   0.00, 1008.6,    0.3, -999.0
11-07-2023, 00:44:07,    174,    0.0,   14.4,   0.00,   0.00, 1008.5,    0.1, -999.0
11-07-2023, 00:44:17,    167,    2.4,   14.4,   0.00,   0.00, 1008.6,    0.2, -999.0
11-07-2023, 00:44:27,    156,    2.2,   14.4,   0.00,   0.00, 1008.7,    0.4, -999.0
11-07-2023, 00:44:37,    150,    2.5,   14.4,   0.00,   0.00, 1008.7,    0.2, -999.0
11-07-2023, 00:44:46,    190,    3.4,   14.3,   0.00,   0.00, 1008.6,    0.4, -999.0
11-07-2023, 00:44:57,    173,    2.3,   14.4,   0.00,   0.00, 1008.7,    0.3, -999.0
11-07-2023, 00:45:07,    208,    2.5,   14.4,   0.00,   0.00, 1008.6,    0.2, -999.0
11-07-2023, 00:45:16,    172,    3.1,   14.4,   0.00,   0.00, 1008.7,    0.5, -999.0
11-07-2023, 00:45:26,    164,    1.8,   14.4,   0.00,   0.01, 1008.6,    0.4, -999.0
11-07-2023, 00:45:37,    128,    3.6,   14.4,   0.00,   0.00, 1008.6,    0.5, -999.0
11-07-2023, 00:45:46,    178,    3.2,   14.5,   0.00,   0.00, 1008.7,    0.3, -999.0
11-07-2023, 00:45:56,    178,    1.2,   14.4,   0.00,   0.00, 1008.7,    0.2, -999.0
11-07-2023, 00:46:07,    187,    1.2,   14.4,   0.00,   0.00, 1008.7,    0.4, -999.0
11-07-2023, 00:46:17,    185,    0.4,   14.4,   0.00,   0.00, 1008.6,    0.3, -999.0
11-07-2023, 00:46:26,    173,    0.8,   14.4,   0.00,   0.00, 1008.6,    0.3, -999.0
11-07-2023, 00:46:36,    163,    0.6,   14.4,   0.00,   0.00, 1008.6,    0.2, -999.0
11-07-2023, 00:46:47,    163,    0.4,   14.4,   0.00,   0.00, 1008.6,    0.3, -999.0